Regional Weather Roundup
Issued by NWS

Home | Current Version | Previous Version | Graphics & Text | Print | Product List | Glossary On
Versions: 1 2 3 4 5 6 7 8 9 10 11 12 13 14 15 16 17 18 19 20 21 22 23 24 25 26 27 28 29 30 31 32 33 34 35 36 37 38 39 40 41 42 43 44 45 46 47 48 49 50
114
ASUS43 KMKX 280621
RWRWI

WISCONSIN REGIONAL WEATHER ROUNDUP
NATIONAL WEATHER SERVICE MILWAUKEE/SULLIVAN WI
100 AM CDT TUE MAR 28 2017

NOTE: "FAIR" INDICATES FEW OR NO CLOUDS BELOW 12,000 FEET WITH NO
SIGNIFICANT WEATHER AND/OR OBSTRUCTIONS TO VISIBILITY.

WIZ001-002-006>008-014>016-023>028-280700-
NORTHWEST WISCONSIN

CITY           SKY/WX    TMP DP  RH WIND       PRES   REMARKS
SUPERIOR ARPT  CLEAR     27  26  98 CALM      30.07R
6HR MIN TEMP:  26; 6HR MAX TEMP:  42;

ASHLAND        CLEAR     29  28  96 SW6       30.06R WCI  23
6HR MIN TEMP:  25; 6HR MAX TEMP:  37;

HAYWARD        CLEAR     29  24  82 NE3       30.05R
6HR MIN TEMP:  28; 6HR MAX TEMP:  51;

SIREN          CLEAR     31  29  91 CALM      30.06R
6HR MIN TEMP:  31; 6HR MAX TEMP:  53;

CUMBERLAND     CLEAR     32  28  86 CALM      30.05R
RICE LAKE      CLEAR     31  31  98 CALM      30.06R
6HR MIN TEMP:  31; 6HR MAX TEMP:  50;

CHETEK         CLEAR     29  29  99 CALM      30.05R
6HR MIN TEMP:  29; 6HR MAX TEMP:  49;

LADYSMITH      CLEAR     35  30  82 E5        30.05S WCI  31
6HR MIN TEMP:  33; 6HR MAX TEMP:  51;

EAU CLAIRE     CLEAR     31  29  92 CALM      30.04R
6HR MIN TEMP:  30; 6HR MAX TEMP:  46;

MENOMONIE      CLEAR     33  33  99 N3        30.05R FOG
6HR MIN TEMP:  32; 6HR MAX TEMP:  49;

NEW RICHMOND   CLOUDY    33  33  99 CALM      30.04S FOG
6HR MIN TEMP:  33; 6HR MAX TEMP:  51;

OSCEOLA        PTCLDY    33  33 100 CALM      30.06S
6HR MIN TEMP:  32; 6HR MAX TEMP:  55;

$$

WIZ003>005-009-010-017-018-280700-
NORTH CENTRAL WISCONSIN

CITY           SKY/WX    TMP DP  RH WIND       PRES   REMARKS
MANITOWISH WTR CLEAR     26  26 100 CALM      30.03R
6HR MIN TEMP:  26; 6HR MAX TEMP:  44;

ARBOR VITAE    CLEAR     29  28  94 CALM      30.02S FOG
6HR MIN TEMP:  29; 6HR MAX TEMP:  43;

WOODRUFF       CLEAR     29  28  94 CALM      30.02S FOG
6HR MIN TEMP:  29; 6HR MAX TEMP:  43;

RHINELANDER    CLEAR     27  26  96 CALM      30.03R
6HR MIN TEMP:  27; 6HR MAX TEMP:  44;

EAGLE RIVER    CLEAR     27  27 100 CALM      30.02S FOG
6HR MIN TEMP:  27; 6HR MAX TEMP:  40;

LAND O LAKES   CLEAR     28  28 100 CALM      30.04R
6HR MIN TEMP:  28; 6HR MAX TEMP:  43;

PHILLIPS       CLEAR     27  27 100 CALM      30.03R
6HR MIN TEMP:  25; 6HR MAX TEMP:  46;

TOMAHAWK       CLEAR     26  25  96 NW3       30.03S
6HR MIN TEMP:  25; 6HR MAX TEMP:  44;

MEDFORD        FOG       28  28  99 CALM      30.03R VSB 3/4
6HR MIN TEMP:  28; 6HR MAX TEMP:  42;

MERRILL        CLEAR     27  27 100 CALM      30.04S FOG
6HR MIN TEMP:  26; 6HR MAX TEMP:  42;

$$

WIZ029-030-035-036-043>047-280700-
CENTRAL WISCONSIN

CITY           SKY/WX    TMP DP  RH WIND       PRES   REMARKS
WAUSAU         CLEAR     31  31 100 N3        30.02R FOG
6HR MIN TEMP:  29; 6HR MAX TEMP:  43;

MOSINEE        CLOUDY    36  36 100 NE5       30.04R WCI  32
MARSHFIELD     CLEAR     36  34  92 NE5       30.02R WCI  32
6HR MIN TEMP:  34; 6HR MAX TEMP:  42;

STEVENS POINT  CLOUDY    36  36 100 CALM      30.03R
6HR MIN TEMP:  33; 6HR MAX TEMP:  41;

WAUPACA        CLOUDY    42  41  96 CALM      30.03S FOG
6HR MIN TEMP:  42; 6HR MAX TEMP:  44;

WAUTOMA        CLOUDY    41  40  96 VRB3      30.03R
6HR MIN TEMP:  41; 6HR MAX TEMP:  44;

WISC RAPIDS    CLOUDY    40  39  97 NE3       30.04R
6HR MIN TEMP:  37; 6HR MAX TEMP:  43;

CAMP DOUGLAS   CLOUDY    39  39 100 NW3       30.03R
6HR MIN TEMP:  40; 6HR MAX TEMP:  45;

$$

WIZ011>013-019>022-031-037>040-048>050-280700-
NORTHEAST WISCONSIN

CITY           SKY/WX    TMP DP  RH WIND       PRES   REMARKS
ANTIGO           N/A     31  31 100 E5        30.02S FOG     WCI  26
6HR MIN TEMP:  29; 6HR MAX TEMP:  39;

SHAWANO        CLOUDY    39  37  91 CALM      30.04R
OCONTO         MOCLDY    32  32 100 CALM      30.04R
6HR MIN TEMP:  32; 6HR MAX TEMP:  38;

STURGEON BAY   CLOUDY    36  35  96 NW5       30.00F WCI  32
6HR MIN TEMP:  36; 6HR MAX TEMP:  39;

GREEN BAY      CLOUDY    39  37  92 CALM      30.03R
6HR MIN TEMP:  39; 6HR MAX TEMP:  41;

MANITOWOC      CLOUDY    38  35  89 CALM      30.03R
6HR MIN TEMP:  38; 6HR MAX TEMP:  38;

APPLETON       CLOUDY    37  37 100 N5        30.01R WCI  34
CLINTONVILLE   CLOUDY    37  37 100 CALM      30.03S
OSHKOSH        CLOUDY    39  37  92 CALM      30.02R
6HR MIN TEMP:  38; 6HR MAX TEMP:  42;

$$

WIZ032>034-041-042-053>061-280700-
SOUTHWEST WISCONSIN

CITY           SKY/WX    TMP DP  RH WIND       PRES   REMARKS
LA CROSSE      PTCLDY    39  37  92 N5        30.04R
6HR MIN TEMP:  40; 6HR MAX TEMP:  47;

SPARTA         CLOUDY    40  38  94 CALM      30.04R
6HR MIN TEMP:  40; 6HR MAX TEMP:  46;

VIROQUA        CLOUDY    42  42  99 CALM      30.02R
6HR MIN TEMP:  42; 6HR MAX TEMP:  44;

BOSCOBEL       CLOUDY    46  44  93 N5        30.02R
6HR MIN TEMP:  46; 6HR MAX TEMP:  49;

PRAIRIE DU CHI CLOUDY    45  43  94 NW7       30.01S
6HR MIN TEMP:  44; 6HR MAX TEMP:  46;

PLATTEVILLE    CLOUDY    45  45 100 CALM      30.00S
6HR MIN TEMP:  45; 6HR MAX TEMP:  48;

$$

WIZ056-057-062-063-064-067-068-280700-
SOUTH CENTRAL WISCONSIN

CITY           SKY/WX    TMP DP  RH WIND       PRES   REMARKS
REEDSBURG      CLOUDY    42  42 100 E5        30.01R FOG
6HR MIN TEMP:  42; 6HR MAX TEMP:  46;

BARABOO/DELLS  CLOUDY    42  40  96 NE5       30.02R FOG
6HR MIN TEMP:  42; 6HR MAX TEMP:  47;

LONE ROCK      CLOUDY    46  43  89 NE5       30.01R FOG
6HR MIN TEMP:  46; 6HR MAX TEMP:  48;

MINERAL POINT  CLOUDY    46  46 100 NE3       30.00R FOG
MADISON        CLOUDY    42  41  96 N5        30.00S
6HR MIN TEMP:  42; 6HR MAX TEMP:  47; 6HR PCP: TRACE;

MIDDLETON      CLOUDY    44  44 100 NE3       30.01R
6HR MIN TEMP:  44; 6HR MAX TEMP:  48;

WATERTOWN      CLOUDY    40  40 100 NE6       30.01S FOG
6HR MIN TEMP:  40; 6HR MAX TEMP:  46;

MONROE         CLOUDY    45  43  93 NE7       29.98S FOG
JANESVILLE     CLOUDY    43  43 100 E6        30.00R FOG
$$

WIZ051-052-058>065-066-070>072-280700-
SOUTHEAST WISCONSIN

CITY           SKY/WX    TMP DP  RH WIND       PRES   REMARKS
MILWAUKEE      CLOUDY    40  35  83 N7        30.01R
6HR MIN TEMP:  38; 6HR MAX TEMP:  40; 6HR PCP: TRACE;

WAUKESHA       CLOUDY    36  36 100 CALM      30.01S FOG
MILWAUKEE/TIMM CLOUDY    37  34  87 N3        30.02S FOG
RACINE         CLOUDY    38  34  85 N7        30.02S WCI  33
6HR MIN TEMP:  38; 6HR MAX TEMP:  40;

KENOSHA        CLOUDY    39  36  89 N8        30.00S WCI  33
6HR MIN TEMP:  39; 6HR MAX TEMP:  43;

FOND DU LAC    CLOUDY    40  35  83 NE3       30.02R
6HR MIN TEMP:  40; 6HR MAX TEMP:  43;

SHEBOYGAN      CLOUDY    38  34  85 NW3       30.02R
6HR MIN TEMP:  37; 6HR MAX TEMP:  38;

WEST BEND      CLOUDY    36  36 100 N3        30.02R
JUNEAU         CLOUDY    39  38  96 CALM      30.02S FOG
6HR MIN TEMP:  39; 6HR MAX TEMP:  44;

$$

LSZ147-162-280700-
LAKE SUPERIOR

STATION/POSITION TIME  TEMP    WIND        PRES    WAVE
                       AIR SEA DIR/SP/G            HT/PER
                 (UTC) (F)     (DEG/KT/KT) (MB)    (FT/S)
DEVILS ISLAND    0600   37     320/  2/  2 1018.8R
PORT WING        0540   28     160/  2/  4 1017.9R
SAXON HARBOR     0540   28     200/  1/  2 1017.6R
$$

LMZ867-665-643>646-280700-
LAKE MICHIGAN

STATION/POSITION TIME  TEMP    WIND        PRES    WAVE
                       AIR SEA DIR/SP/G            HT/PER
                 (UTC) (F)     (DEG/KT/KT) (MB)    (FT/S)
CHAMBERS ISLAND  0540   34     320/  2/  4 1016.6S
NORTHPORT PIER   0540   35     320/  2/  6 1016.6F
SISTER BAY



USA.gov is the U.S. government's official web portal to all federal, state and local government web resources and services.